FW5815 Weather Reports


time (UTC)temp
F
wind
direction
speed
knots
gust
knots
rain 1hr
in
rain 24hr
in
rain mn
in
humidity
%
barometer
mb
20260506051014 50 360 1.7 5.2 0.00 0.00 0.00 87 1009.0
20260506050514 50 0 1.7 7.8 0.00 0.00 0.00 87 1008.9
20260506045017 50 5 0.9 7.0 0.00 0.00 0.00 86 1009.0
20260506044540 50 11 1.7 8.7 0.00 0.00 0.00 86 1009.0
20260506044016 50 5 1.7 8.7 0.00 0.00 0.00 86 1009.1
20260506043516 50 33 2.6 8.7 0.00 0.00 0.00 86 1009.0
20260506043031 50 352 1.7 7.8 0.00 0.00 0.00 86 1008.9
20260506042519 50 352 1.7 5.2 0.00 0.00 0.00 86 1009.0
20260506042019 49 352 1.7 5.2 0.00 0.00 0.00 86 1009.0
20260506041533 49 5 2.6 7.8 0.00 0.00 0.00 86 1009.0
20260506041016 49 360 2.6 7.8 0.00 0.00 0.00 86 1009.1
20260506040518 49 11 0.9 7.0 0.00 0.00 0.00 86 1009.1
20260506040033 49 11 2.6 7.0 0.00 0.00 0.00 86 1009.1
20260506035521 49 360 1.7 7.0 0.00 0.00 0.00 86 1009.2
20260506035016 49 351 1.7 7.0 0.00 0.00 0.00 86 1009.1
20260506034532 49 350 1.7 7.0 0.00 0.00 0.00 86 1009.0
20260506034018 49 5 0.9 4.3 0.00 0.00 0.00 86 1009.2
20260506033517 49 5 0.9 4.3 0.00 0.00 0.00 86 1009.2
20260506033036 49 5 0.9 4.3 0.00 0.00 0.00 87 1009.1
20260506032518 49 5 0.9 6.1 0.00 0.00 0.00 87 1009.3
20260506032017 49 12 0.9 6.1 0.00 0.00 0.00 87 1009.2
20260506031536 49 20 0.9 3.5 0.00 0.00 0.00 87 1009.2
20260506031016 49 0 0.9 5.2 0.00 0.00 0.00 87 1009.3
20260506030519 49 13 0.9 5.2 0.00 0.00 0.00 88 1009.4
20260506030054 49 5 0.9 5.2 0.00 0.00 0.00 87 1009.4
20260506025517 49 5 1.7 5.2 0.00 0.00 0.00 88 1009.4
20260506025019 49 5 0.9 5.2 0.00 0.00 0.00 88 1009.5
20260506024542 49 5 1.7 6.1 0.00 0.00 0.00 88 1009.4
20260506024015 48 13 1.7 6.1 0.00 0.00 0.00 88 1009.5
20260506023517 48 360 0.9 7.0 0.00 0.00 0.00 88 1009.5
20260506023035 48 360 1.7 7.0 0.00 0.00 0.00 88 1009.5
20260506022517 48 5 0.9 5.2 0.00 0.00 0.00 89 1009.6
20260506022017 48 5 0.9 5.2 0.00 0.00 0.00 89 1009.5
20260506021533 48 10 0.9 4.3 0.00 0.00 0.00 89 1009.6
20260506021017 48 0 1.7 5.2 0.00 0.00 0.00 89 1009.6
20260506020522 48 5 1.7 7.0 0.00 0.00 0.00 89 1009.6
20260506020033 47 5 0.9 7.0 0.00 0.00 0.00 89 1009.7
20260506015517 47 5 1.7 7.0 0.00 0.00 0.00 89 1009.7
20260506015027 47 9 0.9 5.2 0.00 0.00 0.00 89 1009.7
20260506014534 47 13 0.9 4.3 0.00 0.00 0.00 89 1009.6
20260506014015 47 13 0.9 4.3 0.00 0.00 0.00 89 1009.6
20260506013515 46 9 0.9 4.3 0.00 0.00 0.00 89 1009.6
20260506013032 46 0 0.0 4.3 0.00 0.00 0.00 89 1009.7
20260506012513 47 9 0.9 5.2 0.00 0.00 0.00 89 1009.7
20260506012016 47 10 0.9 6.1 0.00 0.00 0.00 89 1009.7
20260506011536 47 9 1.7 6.1 0.00 0.00 0.00 89 1009.7
20260506011020 47 10 0.9 4.3 0.00 0.00 0.00 89 1009.7
20260506010515 47 9 0.9 4.3 0.00 0.00 0.00 88 1009.7
20260506010030 47 9 0.9 4.3 0.00 0.00 0.00 88 1009.9
20260506005515 47 0 0.9 4.3 0.00 0.00 0.00 88 1009.8
20260506005015 47 11 1.7 4.3 0.00 0.00 0.00 88 1009.8
20260506004543 47 5 0.9 4.3 0.00 0.00 0.00 88 1009.9
20260506004015 47 5 0.9 6.1 0.00 0.00 0.00 87 1009.9
20260506003515 47 12 1.7 6.1 0.00 0.00 0.00 87 1010.0
20260506003038 47 350 0.9 6.1 0.00 0.00 0.00 87 1010.0
20260506002516 47 5 1.7 6.1 0.00 0.00 0.00 87 1010.1
20260506002017 47 5 0.9 5.2 0.00 0.00 0.00 87 1010.1
20260506001531 47 5 1.7 5.2 0.00 0.00 0.00 86 1010.1
20260506001014 47 346 1.7 6.1 0.00 0.00 0.00 86 1010.2
20260506000516 47 11 1.7 6.1 0.00 0.00 0.00 86 1010.2
20260506000030 47 0 1.7 7.0 0.00 0.00 0.00 86 1010.2
20260505235514 47 360 1.7 7.0 0.00 0.00 0.00 86 1010.2
20260505235016 47 15 0.9 7.0 0.00 0.00 0.00 86 1010.2
20260505234533 47 5 1.7 5.2 0.00 0.00 0.00 86 1010.3
20260505234016 47 10 0.9 3.5 0.00 0.00 0.00 86 1010.3
20260505233518 46 11 0.9 3.5 0.00 0.00 0.00 86 1010.4
20260505233032 46 9 0.9 5.2 0.00 0.00 0.00 86 1010.4
20260505232513 46 9 0.9 6.1 0.00 0.00 0.00 86 1010.5
20260505232013 46 12 1.7 6.1 0.00 0.00 0.00 85 1010.5
20260505231532 46 15 1.7 4.3 0.00 0.00 0.00 85 1010.6
20260505231014 46 17 0.9 4.3 0.00 0.00 0.00 85 1010.6
20260505230514 46 18 0.9 7.0 0.00 0.00 0.00 85 1010.6
20260505230041 47 17 0.9 7.0 0.00 0.00 0.00 85 1010.5
20260505225515 47 18 1.7 7.0 0.00 0.00 0.00 85 1010.6
20260505225020 47 21 0.9 7.0 0.00 0.00 0.00 84 1010.6
20260505224533 47 26 1.7 5.2 0.00 0.00 0.00 84 1010.6
20260505224015 47 5 1.7 5.2 0.00 0.00 0.00 84 1010.6
20260505223518 47 352 1.7 7.8 0.00 0.00 0.00 85 1010.6
20260505223035 47 360 1.7 7.8 0.00 0.00 0.00 85 1010.7
20260505222519 47 5 0.9 5.2 0.00 0.00 0.00 85 1010.7
20260505222015 47 5 1.7 5.2 0.00 0.00 0.00 85 1010.8
20260505221533 47 360 1.7 5.2 0.00 0.00 0.00 85 1010.8
20260505221016 47 5 0.9 4.3 0.00 0.00 0.00 85 1010.8
20260505220517 46 5 0.9 4.3 0.00 0.00 0.00 85 1010.9
20260505220040 46 360 0.9 4.3 0.00 0.00 0.00 85 1011.0
20260505215516 47 352 0.9 3.5 0.00 0.00 0.00 85 1010.9
20260505215017 47 352 0.9 2.6 0.00 0.00 0.00 85 1011.0
20260505214538 47 352 0.0 2.6 0.00 0.00 0.00 85 1011.0
20260505214016 47 0 0.0 2.6 0.00 0.00 0.00 84 1011.1
20260505213520 47 352 0.9 3.5 0.00 0.00 0.00 84 1011.1
20260505213036 47 352 0.0 3.5 0.00 0.00 0.00 84 1011.2
20260505212516 48 0 0.9 3.5 0.00 0.00 0.00 84 1011.2
20260505212016 48 5 0.9 3.5 0.00 0.00 0.00 83 1011.2
20260505211534 48 5 1.7 4.3 0.00 0.00 0.00 83 1011.3
20260505211017 48 360 0.9 4.3 0.00 0.00 0.00 83 1011.2
20260505210518 48 360 0.9 4.3 0.00 0.00 0.00 83 1011.2
20260505210033 48 352 1.7 4.3 0.00 0.00 0.00 83 1011.3
20260505205515 48 5 1.7 5.2 0.00 0.00 0.00 82 1011.4
20260505205017 48 5 1.7 5.2 0.00 0.00 0.00 82 1011.5
20260505204535 49 9 1.7 5.2 0.00 0.00 0.00 82 1011.4
20260505204017 49 5 1.7 3.5 0.00 0.00 0.00 82 1011.4
20260505203517 49 5 0.9 5.2 0.00 0.00 0.00 82 1011.4
20260505203041 49 5 1.7 7.0 0.00 0.00 0.00 81 1011.4
20260505202516 49 5 1.7 7.0 0.00 0.00 0.00 81 1011.4
20260505202017 49 5 1.7 7.0 0.00 0.00 0.00 81 1011.3
20260505201536 49 352 1.7 5.2 0.00 0.00 0.00 81 1011.4
20260505201016 49 5 1.7 6.1 0.00 0.00 0.00 81 1011.4
20260505200518 50 352 2.6 6.1 0.00 0.00 0.00 80 1011.5
20260505200036 50 360 1.7 5.2 0.00 0.00 0.00 80 1011.4
20260505195519 50 348 1.7 5.2 0.00 0.00 0.00 80 1011.4
20260505195017 50 338 2.6 7.0 0.00 0.00 0.00 80 1011.3
20260505194533 50 360 2.6 7.0 0.00 0.00 0.00 80 1011.3
20260505194015 50 5 2.6 7.0 0.00 0.00 0.00 80 1011.1
20260505193514 51 352 2.6 7.0 0.00 0.00 0.00 80 1011.1
20260505193042 51 352 2.6 7.0 0.00 0.00 0.00 79 1011.0
20260505192516 51 13 2.6 7.0 0.00 0.00 0.00 79 1011.0
20260505192017 51 5 1.7 5.2 0.00 0.00 0.00 79 1011.0
20260505191529 51 5 2.6 8.7 0.00 0.00 0.00 78 1010.9
20260505191013 51 360 3.5 8.7 0.00 0.00 0.00 78 1010.9
20260505190515 52 9 2.6 8.7 0.00 0.00 0.00 78 1010.7
20260505190040 52 352 2.6 10.4 0.00 0.00 0.00 78 1010.8
20260505185516 52 5 3.5 10.4 0.00 0.00 0.00 77 1010.7
20260505185016 52 360 3.5 12.2 0.00 0.00 0.00 77 1010.7
20260505184533 53 46 3.5 12.2 0.00 0.00 0.00 77 1010.7
20260505184016 53 30 3.5 12.2 0.00 0.00 0.00 76 1010.7
20260505183515 53 10 4.3 8.7 0.00 0.00 0.00 76 1010.7
20260505183033 53 352 2.6 10.4 0.00 0.00 0.00 76 1010.7
20260505182514 53 352 2.6 10.4 0.00 0.00 0.00 76 1010.7
20260505182013 54 352 3.5 10.4 0.00 0.00 0.00 75 1010.6
20260505181534 54 11 2.6 10.4 0.00 0.00 0.00 75 1010.6
20260505181016 54 352 3.5 8.7 0.00 0.00 0.00 75 1010.6
20260505180513 54 360 2.6 10.4 0.00 0.00 0.00 75 1010.7
20260505180039 55 349 4.3 10.4 0.00 0.00 0.00 74 1010.6
20260505175514 55 352 3.5 7.8 0.00 0.00 0.00 74 1010.6
20260505175013 55 335 3.5 8.7 0.00 0.00 0.00 74 1010.6
20260505174529 55 352 2.6 8.7 0.00 0.00 0.00 74 1010.6
20260505174013 55 26 3.5 8.7 0.00 0.00 0.00 73 1010.6
20260505173515 55 24 2.6 8.7 0.00 0.00 0.00 73 1010.7
20260505173029 55 346 2.6 8.7 0.00 0.00 0.00 73 1010.7
20260505172514 56 349 2.6 8.7 0.00 0.00 0.00 72 1010.6
20260505172014 56 15 1.7 7.8 0.00 0.00 0.00 72 1010.6
20260505171528 56 352 3.5 8.7 0.00 0.00 0.00 72 1010.7
20260505171016 56 13 1.7 8.7 0.00 0.00 0.00 72 1010.7
20260505170516 56 17 2.6 7.8 0.00 0.00 0.00 71 1010.6
20260505170027 57 352 3.5 7.8 0.00 0.00 0.00 70 1010.8
20260505165515 57 360 2.6 7.8 0.00 0.00 0.00 71 1010.7
20260505165015 57 14 2.6 7.8 0.00 0.00 0.00 70 1010.8
20260505164538 57 352 3.5 7.8 0.00 0.00 0.00 70 1010.8
20260505164014 57 5 3.5 7.8 0.00 0.00 0.00 69 1010.9
20260505163515 58 19 2.6 7.0 0.00 0.00 0.00 69 1010.7
20260505163034 58 5 2.6 7.8 0.00 0.00 0.00 69 1010.8
20260505162541 58 5 2.6 7.8 0.00 0.00 0.00 69 1010.8
20260505162018 58 49 3.5 7.8 0.00 0.00 0.00 68 1010.7
20260505161532 58 352 2.6 7.0 0.00 0.00 0.00 68 1010.8
20260505161018 58 26 2.6 8.7 0.00 0.00 0.00 68 1010.8
20260505160516 58 88 2.6 8.7 0.00 0.00 0.00 68 1010.8
20260505153039 59 100 2.6 9.6 0.00 0.00 0.00 65 1010.8
20260505152515 59 17 1.7 7.0 0.00 0.00 0.00 66 1010.8
20260505152024 59 5 2.6 7.0 0.00 0.00 0.00 65 1010.9
20260505151538 59 41 2.6 7.0 0.00 0.00 0.00 66 1010.9
20260505151016 59 27 2.6 10.4 0.00 0.00 0.00 66 1010.8
20260505150515 59 12 2.6 10.4 0.00 0.00 0.00 68 1010.9
20260505140515 60 106 2.6 7.0 0.00 0.00 0.00 64 1011.1
20260505125017 60 107 2.6 8.7 0.00 0.00 0.00 63 1011.4
20260505124534 60 20 1.7 7.0 0.00 0.00 0.00 65 1011.3
20260505124016 60 350 1.7 7.8 0.00 0.00 0.00 63 1011.4
20260505123516 61 347 3.5 7.8 0.00 0.00 0.00 62 1011.4
20260505123047 61 98 2.6 7.8 0.00 0.00 0.00 63 1011.5
20260505122516 61 53 2.6 8.7 0.00 0.00 0.00 63 1011.5
20260505122016 61 352 2.6 9.6 0.00 0.00 0.00 62 1011.4
20260505121533 61 360 3.5 9.6 0.00 0.00 0.00 64 1011.4
20260505121016 61 5 2.6 8.7 0.00 0.00 0.00 63 1011.4
20260505120516 61 352 3.5 9.6 0.00 0.00 0.00 64 1011.3
20260505120043 60 107 1.7 9.6 0.00 0.00 0.00 64 1011.4
20260505115517 60 5 3.5 10.4 0.00 0.00 0.00 63 1011.4
20260505115016 61 360 2.6 10.4 0.00 0.00 0.00 63 1011.5
20260505114531 61 81 2.6 10.4 0.00 0.00 0.00 63 1011.5
20260505114016 61 360 3.5 11.3 0.00 0.00 0.00 62 1011.6
20260505113517 61 360 3.5 11.3 0.00 0.00 0.00 63 1011.6
20260505113038 61 27 4.3 11.3 0.00 0.00 0.00 63 1011.7
20260505112520 61 100 4.3 11.3 0.00 0.00 0.00 62 1011.6
20260505112015 61 93 2.6 10.4 0.00 0.00 0.00 62 1011.7
20260505111534 61 62 3.5 8.7 0.00 0.00 0.00 63 1011.6
20260505111015 61 22 3.5 7.8 0.00 0.00 0.00 65 1011.8
20260505110518 62 334 2.6 8.7 0.00 0.00 0.00 64 1011.8
20260505102016 61 24 1.7 8.7 0.00 0.00 0.00 68 1012.0
20260505101534 60 100 3.5 8.7 0.00 0.00 0.00 67 1012.1
20260505101018 60 108 2.6 7.8 0.00 0.00 0.00 68 1012.1
20260505100516 60 25 1.7 7.8 0.00 0.00 0.00 68 1012.2
20260505100034 60 32 3.5 7.8 0.00 0.00 0.00 67 1012.0
20260505095517 59 78 2.6 7.8 0.00 0.00 0.00 68 1012.1
20260505095016 60 5 2.6 11.3 0.00 0.00 0.00 67 1012.1
20260505094534 59 73 2.6 11.3 0.00 0.00 0.00 68 1012.2
20260505094015 60 352 3.5 8.7 0.00 0.00 0.00 68 1012.1
20260505093515 59 350 1.7 7.8 0.00 0.00 0.00 67 1012.1
20260505093040 59 5 3.5 7.8 0.00 0.00 0.00 67 1012.1
20260505092517 60 352 2.6 7.8 0.00 0.00 0.00 67 1012.2
20260505092015 60 360 1.7 7.0 0.00 0.00 0.00 68 1012.3
20260505091533 59 20 2.6 7.8 0.00 0.00 0.00 68 1012.2
20260505091015 58 13 1.7 7.8 0.00 0.00 0.00 70 1012.2
20260505090516 57 13 2.6 7.8 0.00 0.00 0.00 71 1012.2
20260505090030 57 115 1.7 7.8 0.00 0.00 0.00 72 1012.2
20260505085518 58 12 2.6 7.8 0.00 0.00 0.00 71 1012.2
20260505085017 57 16 3.5 8.7 0.00 0.00 0.00 71 1012.2
20260505084552 57 39 3.5 8.7 0.00 0.00 0.00 72 1012.1
20260505084016 57 26 2.6 7.0 0.00 0.00 0.00 74 1012.1
20260505083518 56 360 2.6 7.0 0.00 0.00 0.00 77 1012.2
20260505083055 54 360 2.6 7.0 0.00 0.00 0.00 77 1012.2
20260505082516 55 352 2.6 7.8 0.00 0.00 0.00 78 1012.2
20260505082016 54 5 2.6 7.8 0.00 0.00 0.00 78 1012.2
20260505081551 54 42 2.6 7.8 0.00 0.00 0.00 76 1012.2
20260505081015 54 99 2.6 9.6 0.00 0.00 0.00 78 1012.1
20260505080517 54 17 3.5 10.4 0.00 0.00 0.00 77 1012.0
20260505080042 54 360 5.2 10.4 0.00 0.00 0.00 78 1012.0
20260505075518 54 5 2.6 10.4 0.00 0.00 0.00 79 1012.0
20260505075016 53 16 2.6 7.0 0.00 0.00 0.00 80 1012.0
20260505074531 53 11 1.7 7.0 0.00 0.00 0.00 81 1012.2
20260505074017 53 12 2.6 7.8 0.00 0.00 0.00 81 1012.3
20260505073515 53 12 3.5 8.7 0.00 0.00 0.00 82 1012.2
20260505073045 53 12 1.7 8.7 0.00 0.00 0.00 83 1012.4
20260505072515 52 13 2.6 8.7 0.00 0.00 0.00 83 1012.5
20260505072014 52 14 2.6 8.7 0.00 0.00 0.00 84 1012.4
20260505071544 52 15 2.6 7.8 0.00 0.00 0.00 84 1012.6
20260505071016 52 15 2.6 7.8 0.00 0.00 0.00 84 1012.5
20260505070521 52 19 1.7 6.1 0.00 0.00 0.00 85 1012.6
20260505070042 52 19 2.6 7.0 0.00 0.00 0.00 86 1012.6
20260505065517 52 19 1.7 7.0 0.00 0.00 0.00 86 1012.7
20260505065017 52 20 2.6 6.1 0.00 0.00 0.00 86 1012.6
20260505064535 52 20 1.7 7.0 0.00 0.00 0.00 86 1012.8
20260505064019 51 20 2.6 7.8 0.00 0.00 0.00 86 1012.8
20260505063516 51 22 2.6 7.8 0.00 0.00 0.00 86 1012.9
20260505063039 51 5 1.7 7.8 0.00 0.00 0.00 87 1013.0
20260505062517 51 5 2.6 7.8 0.00 0.00 0.00 87 1013.0
20260505062016 51 9 1.7 7.8 0.00 0.00 0.00 87 1012.9
20260505061539 51 5 1.7 7.8 0.00 0.00 0.00 87 1012.9
20260505061017 51 5 1.7 7.0 0.00 0.00 0.00 87 1013.0
20260505060517 51 5 2.6 7.0 0.00 0.00 0.00 87 1012.9
20260505060053 51 5 1.7 7.0 0.00 0.00 0.00 87 1013.0
20260505055516 51 9 0.9 7.0 0.00 0.00 0.00 88 1012.9